Das Wetter in  D-61279 Heinzenberg / Taunus





Wetter Minimum- & Maximum-Werte im Januar 2018

Standort: Heinzenberg / Taunus - Höhe 297 m         8 24' 1" Ost 50 21' 51" Nord
(   3-stündige Aktualisierung    letzte Aktualisierung um 19:04 am 31.01.2018  )


Messgrösse

Minimum

Maximum

Durchschnitt

Temperatur West /
Luftfeuchte West
Anklicken für Monats-Diagramm

-2,7 C

22:37
14.01.2018

57 %

13:14
18.01.2018

11,2 C

15:12
10.01.2018

94 %

14:14
12.01.2018

Temp

4,5 C

Feuchte

86 %

Temperatur Ost /
Luftfeuchte Ost
Anklicken für Monats-Diagramm

-2,5 C

22:47
14.01.2018

--

--
--

11,2 C

13:16
24.01.2018

--

--
--

4,6 C

--

Luftdruck Anklicken für Monats-Diagramm

987,1 hPa

07:01
03.01.2018

1032,4 hPa

10:39
27.01.2018

1012,9 hPa

Taupunkt

-5,4 C

21:56
14.01.2018

8,4 C

13:16
24.01.2018

2,3 C

Windchill
( gefühlte Temperatur )

-17,1 C

08:29
17.01.2018

11,1 C

15:17
10.01.2018

0,2 C

Windgeschwindigkeit /
Windrichtung
Anklicken für Monats-Diagramm

---

92,5 km/h / W-SW

11:19
18.01.2018

12,1 km/h
W-SW

Helligkeit /
Sonnenschein
Anklicken für Monats-Diagramm
Anklicken für Monats-Diagramm

Sonnenschein:

32:56 Stunden

Max: 6:30 Std am
30.01.2018

62,900 klux

12:48
16.01.2018

8,6 klux

Solarstrahlung Anklicken für Monats-Diagramm

---

430 W/m

12:48
16.01.2018

67 W/m

Regenmenge
    Januar 2018
Anklicken für Monats-Diagramm

Insgesamt 96,7 l/m

in 178:33 Stunden
an 27 Tagen

10,3 l/m

08:43
05.01.2018

Gesamtmenge

96,7 l/m

Regen-Tage
    Januar 2018
Anklicken für Monats-Diagramm

>   0 mm/Tag

>   2 mm/Tag

>   5 mm/Tag

> 10 mm/Tag

> 20 mm/Tag

27 Tage     
15 Tage     
8 Tage     
2 Tage     
0 Tage     

Eisige Tage Januar 2018 / 2017

Tmin ≤ -10C     

0 Tage

/

6 Tage

Eistage Januar 2018 / 2017

Tmax <     0C     

0 Tage

/

6 Tage

Frosttage Januar 2018 / 2017

Tmin ≤     0C     

3 Tage

/

29 Tage

Kalte Tage Januar 2018 / 2017

Tmax <   10C     

28 Tage

/

31 Tage

Warme Tage Januar 2018 / 2017

Tmax ≥   20C     

0 Tage

/

0 Tage

Sommertage Januar 2018 / 2017

Tmax ≥   25C     

0 Tage

/

0 Tage

Heisse Tage Januar 2018 / 2017

Tmax ≥   30C     

0 Tage

/

0 Tage


Monatsdiagramm Januar 2018

Die Kurven zeigen den Durchschnittswert des jeweiligen Tages an


Wetter-Monatsübersicht Januar 2018
Datum
  Temperatur
   Luftdruck
   Wind
  Regen
   Luftfeuchte
   Helligkeit

Sonnen-
schein


Temp.

Min.
Temp.

Max.
Temp.


Luftdruck

Min.
Luftdruck

Max.
Luftdruck

-Geschw.
Haupt-Richtg.

Max.
Wind

Menge /
Dauer


Feuchte

Min.
Feuchte

Max.
Feuchte


Helligkeit

Max.
Helligkeit

1.
Januar
6,6 C4,6 C
18:29
9,7 C
00:34
1001,9 hPa995,7 hPa
21:24
1007,0 hPa
10:34
29,4 km/h
W-SW
51,2 km/h
04:54  
4,0 l/m
8:41 Stunden
76 %65 %
13:29
90 %
23:35
9,24 klux48,80 klux
11:39
55 Min 
2.
Januar
4,1 C3,2 C
03:35
5,3 C
14:20
1009,0 hPa999,9 hPa
00:00
1013,4 hPa
13:10
20,5 km/h
W
45,2 km/h
22:56  
4,1 l/m
12:11 Stunden
87 %80 %
18:25
92 %
10:45
7,7 klux41,0 klux
12:35
45 Min 
3.
Januar
6,0 C3,0 C
11:26
8,6 C
06:41
995,7 hPa987,1 hPa
07:01
1006,2 hPa
00:01
36,7 km/h
W
87,3 km/h
06:46  
10,2 l/m
7:55 Stunden
83 %74 %
10:06
92 %
05:01
5,9 klux40,1 klux
12:36
15 Min 
4.
Januar
6,8 C5,3 C
00:27
9,8 C
18:22
997,1 hPa992,0 hPa
20:07
1000,9 hPa
00:52
21,8 km/h
W
45,8 km/h
23:23  
4,9 l/m
6:40 Stunden
83 %71 %
23:23
92 %
16:27
3,4 klux7,9 klux
13:37
--- 
5.
Januar
6,8 C6,0 C
03:48
7,5 C
00:03
998,9 hPa996,5 hPa
00:03
1002,8 hPa
23:59
17,7 km/h
W-SW
43,2 km/h
02:53  
10,3 l/m
7:00 Stunden
85 %71 %
01:03
92 %
10:13
3,89 klux12,80 klux
11:38
--- 
6.
Januar
5,2 C3,6 C
06:54
6,4 C
02:59
1007,3 hPa1002,8 hPa
00:04
1013,4 hPa
23:50
0,9 km/h
W-SW
16,3 km/h
00:49  
6,7 l/m
11:16 Stunden
91 %88 %
00:04
93 %
15:34
4,2 klux17,1 klux
11:29
--- 
7.
Januar
3,0 C2,0 C
18:55
4,4 C
00:00
1020,6 hPa1013,4 hPa
00:00
1025,1 hPa
22:10
1,0 km/h
O-NO
8,5 km/h
02:20  
2,1 l/m
5:00 Stunden
90 %88 %
15:25
92 %
00:00
3,1 klux8,7 klux
13:05
--- 
8.
Januar
2,3 C1,2 C
20:06
4,0 C
14:31
1022,7 hPa1017,8 hPa
23:51
1024,2 hPa
08:36
0,8 km/h
NO
15,8 km/h
14:46  
---
88 %85 %
14:46
89 %
00:01
5,16 klux14,30 klux
14:36
--- 
9.
Januar
3,8 C1,2 C
07:31
8,7 C
14:56
1012,8 hPa1009,8 hPa
14:56
1017,8 hPa
00:01
0,9 km/h
O-SO
20,1 km/h
23:57  
---
20 Minuten
87 %77 %
15:06
91 %
11:01
11,1 klux45,4 klux
13:51
1:50 Std 
10.
Januar
6,8 C5,5 C
20:02
11,2 C
15:12
1010,5 hPa1008,4 hPa
15:12
1011,2 hPa
20:02
3,0 km/h
SW
17,6 km/h
00:17  
1,7 l/m
4:51 Stunden
82 %69 %
15:22
89 %
08:02
20,4 klux48,6 klux
12:37
5:20 Std 
11.
Januar
5,1 C4,0 C
06:18
7,2 C
13:58
1015,5 hPa1011,2 hPa
00:12
1021,8 hPa
23:44
0,1 km/h
SO
3,7 km/h
02:03  
0,3 l/m
1:20 Stunden
90 %85 %
00:03
92 %
21:38
6,1 klux12,6 klux
13:08
--- 
12.
Januar
4,4 C3,5 C
05:04
5,2 C
14:34
1024,4 hPa1021,8 hPa
00:04
1025,9 hPa
11:29
0,0 km/h
O-SO
1,8 km/h
23:50  
0,2 l/m
5 Minuten
93 %92 %
00:04
94 %
14:14
2,4 klux5,6 klux
10:39
--- 
13.
Januar
3,6 C2,0 C
08:50
4,7 C
00:00
1024,8 hPa1022,8 hPa
16:45
1026,2 hPa
08:50
3,7 km/h
O-SO
24,7 km/h
06:10  
---
84 %76 %
16:30
92 %
00:00
5,72 klux14,40 klux
11:20
--- 
14.
Januar
1,1 C-2,7 C
22:37
4,7 C
14:36
1021,9 hPa1020,6 hPa
14:36
1023,3 hPa
09:41
5,5 km/h
O-SO
30,7 km/h
11:56  
---
76 %65 %
14:46
85 %
23:52
17,9 klux39,5 klux
13:06
4:40 Std 
15.
Januar
1,8 C-2,3 C
03:42
4,9 C
23:53
1010,5 hPa995,8 hPa
23:53
1021,5 hPa
00:42
13,6 km/h
SW
50,9 km/h
22:07  
0,8 l/m
4:30 Stunden
84 %78 %
14:02
87 %
08:27
7,3 klux33,3 klux
14:07
15 Min 
16.
Januar
4,2 C0,8 C
23:04
7,0 C
15:33
994,6 hPa992,4 hPa
12:58
996,3 hPa
22:49
22,7 km/h
W-SW
68,4 km/h
13:08  
5,3 l/m
11:05 Stunden
84 %66 %
15:43
90 %
02:08
13,1 klux62,9 klux
12:48
2:20 Std 
17.
Januar
0,8 C-0,6 C
09:09
2,1 C
01:14
1001,2 hPa993,1 hPa
03:19
1008,8 hPa
19:54
20,2 km/h
W
46,3 km/h
08:14  
3,3 l/m
13:40 Stunden
88 %83 %
07:39
92 %
15:39
8,6 klux56,7 klux
11:39
55 Min 
18.
Januar
3,9 C1,3 C
00:04
9,2 C
13:14
1000,6 hPa993,2 hPa
12:14
1008,7 hPa
00:04
31,9 km/h
W-SW
92,5 km/h
11:19  
5,6 l/m
13:40 Stunden
78 %57 %
13:14
90 %
09:54
14,5 klux58,5 klux
12:04
2:35 Std 
19.
Januar
1,4 C0,2 C
19:01
3,3 C
14:36
1007,8 hPa1002,3 hPa
00:01
1010,8 hPa
23:27
10,8 km/h
W
33,6 km/h
08:26  
5,9 l/m
7:05 Stunden
85 %77 %
16:31
91 %
05:06
6,9 klux38,9 klux
14:26
45 Min 
20.
Januar
1,1 C0,0 C
22:28
2,7 C
11:22
1004,9 hPa998,3 hPa
18:17
1010,8 hPa
00:02
8,9 km/h
W-SW
29,1 km/h
03:27  
4,0 l/m
10:30 Stunden
86 %81 %
11:22
91 %
23:33
7,8 klux37,1 klux
11:07
50 Min 
21.
Januar
1,0 C0,0 C
08:53
3,9 C
14:43
1012,3 hPa1000,5 hPa
00:13
1017,0 hPa
20:23
7,8 km/h
W-NW
26,0 km/h
03:18  
1,2 l/m
3:11 Stunden
89 %83 %
14:53
92 %
02:53
11,2 klux50,1 klux
12:13
1:41 Std 
22.
Januar
2,8 C0,2 C
02:59
5,8 C
13:59
1010,2 hPa1007,0 hPa
13:59
1017,6 hPa
23:45
1,2 km/h
O-SO
29,5 km/h
23:10  
4,6 l/m
9:06 Stunden
90 %86 %
00:09
92 %
12:19
5,8 klux26,9 klux
13:54
5 Min 
23.
Januar
5,3 C4,1 C
04:50
6,8 C
14:15
1022,2 hPa1017,6 hPa
00:00
1024,8 hPa
10:40
10,1 km/h
W-SW
24,7 km/h
15:50  
1,4 l/m
5:55 Stunden
88 %81 %
14:35
92 %
00:00
6,1 klux17,9 klux
13:35
--- 
24.
Januar
8,9 C6,7 C
00:06
11,2 C
13:16
1018,3 hPa1013,8 hPa
20:46
1021,4 hPa
00:06
16,0 km/h
W-SW
33,9 km/h
13:36  
---
1:25 Stunden
86 %79 %
23:27
90 %
03:11
14,1 klux57,6 klux
13:11
1:50 Std 
25.
Januar
8,5 C6,7 C
23:48
9,6 C
02:12
1012,7 hPa1011,8 hPa
14:27
1014,0 hPa
12:12
12,1 km/h
W-SW
42,8 km/h
03:52  
9,6 l/m
12:51 Stunden
85 %77 %
01:22
91 %
23:23
4,6 klux9,9 klux
12:52
--- 
26.
Januar
5,7 C3,4 C
22:13
7,3 C
13:33
1017,8 hPa1013,1 hPa
00:03
1026,0 hPa
23:44
0,0 km/h
W
2,4 km/h
01:28  
1,2 l/m
2:15 Stunden
91 %89 %
15:43
93 %
09:18
6,6 klux12,6 klux
11:23
--- 
27.
Januar
3,2 C1,7 C
07:49
4,6 C
13:29
1030,2 hPa1025,9 hPa
00:19
1032,4 hPa
10:39
1,4 km/h
W-SW
25,6 km/h
23:20  
---
10 Minuten
92 %88 %
23:35
93 %
04:39
9,6 klux24,7 klux
13:04
45 Min 
28.
Januar
5,8 C3,5 C
05:55
7,9 C
15:15
1031,2 hPa1030,0 hPa
07:30
1032,0 hPa
09:40
19,3 km/h
W-SW
34,6 km/h
11:10  
0,2 l/m
2:15 Stunden
86 %81 %
16:35
91 %
08:30
8,8 klux22,7 klux
13:05
20 Min 
29.
Januar
8,2 C6,5 C
23:57
9,0 C
12:06
1027,0 hPa1023,3 hPa
16:46
1031,7 hPa
00:01
25,8 km/h
W
44,8 km/h
13:46  
0,3 l/m
2:31 Stunden
82 %75 %
18:41
91 %
22:37
6,0 klux14,3 klux
12:16
--- 
30.
Januar
4,4 C0,9 C
08:37
10,5 C
15:47
1027,7 hPa1021,7 hPa
23:43
1030,5 hPa
08:37
5,9 km/h
W-NW
32,5 km/h
00:02  
---
79 %62 %
15:57
89 %
09:47
23,0 klux58,4 klux
12:52
6:30 Std 
31.
Januar
6,4 C3,6 C
23:53
8,6 C
11:48
1009,4 hPa1000,0 hPa
23:23
1021,7 hPa
00:03
24,0 km/h
W-SW
48,8 km/h
10:48  
9,0 l/m
13:05 Stunden
86 %79 %
12:58
91 %
20:53
7,6 klux39,8 klux
10:23
20 Min 



Januar
2018

Temperatur

  

Luftdruck

  

Wind

  

Regen

  

Luftfeuchte

  

Helligkeit

Sonnen-
schein

Min

Max

Min

Max

Max

Max

Min

Max

Max

Max

4,5 C

-2,7 C

22:37 Uhr
14.01.2018

11,2 C

15:12 Uhr
10.01.2018

1012,9 hPa

987,1 hPa

07:01 Uhr
03.01.2018

1032,4 hPa

10:39 Uhr
27.01.2018

12,1 km/h

W-SW

92,5 km/h

11:19 Uhr
18.01.2018

10,3 l/m

7:00 Stunden
05.01.2018

86 %

57 %

13:14 Uhr
18.01.2018

94 %

14:14 Uhr
12.01.2018

8,6 klux

62,90 klux

12:48 Uhr
16.01.2018

6:30 Std

am
30.01.2018

Gesamt

Gesamt

96,7 l/m

27 Tage
178:33 h

32:56 Std


Wetter-Diagramme Januar 2018     Heinzenberg / Taunus   
TemperaturLuftfeuchte
SolarstrahlungLuftdruck
HelligkeitSonnenschein
RegenmengeRegendauer
Wind-GeschwindigkeitWind-Richtung